Terminal Aerodrome Forecast
Issued by NWS Blacksburg, VA

Current Version | Previous Version | Graphics & Text | Print | Product List | Glossary On
Versions: 1 2 3 4 5 6 7 8 9 10 11 12 13 14 15 16 17 18 19 20 21 22 23 24 25 26 27 28 29 30
000
FTUS41 KRNK 011746
TAFBLF
TAF
KBLF 011746Z 0118/0218 00000KT P6SM SCT035
     FM012000 27003KT P6SM VCSH SCT040
     FM020000 VRB03KT P6SM SCT035 BKN100
     FM021200 00000KT P6SM SCT024
     FM021700 31004KT P6SM -SHRA BKN040=

USA.gov is the U.S. government's official web portal to all federal, state and local government web resources and services.